{"data":{"norad_id":61857,"intl_designator":"2024-202N","name":"STARLINK-32451","alt_names":[],"object_type":"PAYLOAD","status":"ACTIVE","operator":null,"country":"US","launch_date":"2024-11-07","launch_site_code":"AFETR","launch_vehicle":null,"mission":null,"orbit_class":"UNKNOWN","rcs_meters":null,"size_class":null,"mass_kg":null,"dimensions":null,"purposes":["comms"],"wikipedia_slug":null,"has_3d_model":false,"image_url":null,"decayed_at":null,"tle_current":{"epoch":"2026-05-25T02:22:09.872832Z","epoch_age_seconds":77110,"freshness":"FRESH","line1":"1 61857U 24202N   26145.09872538 -.00002481  00000+0 -80620-4 0  9993","line2":"2 61857  43.0003 166.4537 0001291 280.2908  79.7798 15.27590295 87022","mean_motion":15.27590295,"eccentricity":0.0001291,"inclination_deg":43.0003,"raan_deg":166.4537,"arg_perigee_deg":280.2908,"mean_anomaly_deg":79.7798,"bstar":-8.062e-5,"rev_number":8702,"period_min":94.266113414919,"perigee_km":482.13249413391,"apogee_km":483.90404442444,"semimajor_km":6861.1552692792,"source":"CELESTRAK","updated_at":"2026-05-25T13:38:19.452106Z"}}}